Hourly Weather Kismajo

Today, 20 October, Tuesday

Time Temperature Precipitation Wind Pressure Humidity
00:00 +27°C° 0 mm 5 mps 756 mmHg 83%
01:00 +27°C° 0 mm 5 mps 756 mmHg 83%
02:00 +27°C° 0 mm 5 mps 755 mmHg 83%
03:00 +27°C° 0 mm 5 mps 755 mmHg 83%
04:00 +27°C° 0 mm 5 mps 755 mmHg 83%
05:00 +27°C° 0 mm 5 mps 756 mmHg 83%
06:00 +27°C° 0 mm 5 mps 756 mmHg 83%
07:00 +28°C° 0 mm 5 mps 757 mmHg 76%
08:00 +30°C° 0 mm 5 mps 757 mmHg 69%
09:00 +32°C° 0 mm 6 mps 757 mmHg 61%
10:00 +33°C° 0 mm 6 mps 757 mmHg 58%
11:00 +34°C° 0 mm 6 mps 757 mmHg 54%
12:00 +35°C° 0 mm 6 mps 756 mmHg 50%
13:00 +34°C° 0 mm 7 mps 756 mmHg 52%
14:00 +34°C° 0 mm 7 mps 755 mmHg 55%
15:00 +33°C° 0 mm 7 mps 754 mmHg 57%
16:00 +32°C° 0 mm 7 mps 755 mmHg 61%
17:00 +30°C° 0 mm 6 mps 755 mmHg 66%
18:00 +29°C° 0 mm 6 mps 755 mmHg 71%
19:00 +28°C° 0 mm 6 mps 756 mmHg 73%
20:00 +28°C° 0 mm 6 mps 756 mmHg 75%
21:00 +28°C° 0 mm 6 mps 757 mmHg 77%
22:00 +28°C° 0 mm 6 mps 757 mmHg 79%
23:00 +27°C° 0 mm 5 mps 756 mmHg 81%

Tomorrow, 21 October, Wednesday

Time Temperature Precipitation Wind Pressure Humidity
00:00 +27°C° 0 mm 5 mps 756 mmHg 83%
01:00 +27°C° 0 mm 5 mps 756 mmHg 84%
02:00 +27°C° 0 mm 5 mps 756 mmHg 85%
03:00 +27°C° 0 mm 5 mps 755 mmHg 86%
04:00 +27°C° 0 mm 4 mps 756 mmHg 87%
05:00 +27°C° 0 mm 4 mps 756 mmHg 87%
06:00 +26°C° 0 mm 4 mps 756 mmHg 88%
07:00 +28°C° 0 mm 4 mps 757 mmHg 78%
08:00 +30°C° 0 mm 5 mps 758 mmHg 68%
09:00 +33°C° 0 mm 5 mps 758 mmHg 58%
10:00 +33°C° 0 mm 5 mps 757 mmHg 54%
11:00 +34°C° 0 mm 5 mps 757 mmHg 51%
12:00 +35°C° 0 mm 5 mps 756 mmHg 47%
13:00 +35°C° 0 mm 6 mps 755 mmHg 48%
14:00 +35°C° 0 mm 6 mps 755 mmHg 50%
15:00 +35°C° 0 mm 6 mps 754 mmHg 51%
16:00 +33°C° 0 mm 6 mps 754 mmHg 58%
17:00 +32°C° 0 mm 6 mps 754 mmHg 65%
18:00 +29°C° 0 mm 5 mps 755 mmHg 72%
19:00 +29°C° 0 mm 5 mps 755 mmHg 75%
20:00 +29°C° 0 mm 5 mps 756 mmHg 77%
21:00 +28°C° 0 mm 5 mps 756 mmHg 80%
22:00 +28°C° 0 mm 5 mps 756 mmHg 82%
23:00 +28°C° 0 mm 5 mps 756 mmHg 83%

Day after tomorrow, 22 October, Thursday

Time Temperature Precipitation Wind Pressure Humidity
00:00 +28°C° 0 mm 5 mps 756 mmHg 85%
01:00 +28°C° 0 mm 5 mps 756 mmHg 85%
02:00 +28°C° 0 mm 5 mps 756 mmHg 86%
03:00 +27°C° 0 mm 5 mps 755 mmHg 87%
04:00 +27°C° 0 mm 5 mps 756 mmHg 87%
05:00 +27°C° 0 mm 5 mps 756 mmHg 86%
06:00 +27°C° 0 mm 4 mps 757 mmHg 86%
07:00 +29°C° 0 mm 5 mps 757 mmHg 78%
08:00 +30°C° 0 mm 5 mps 758 mmHg 70%
09:00 +33°C° 0 mm 5 mps 758 mmHg 62%
10:00 +34°C° 0 mm 6 mps 757 mmHg 57%
11:00 +35°C° 0 mm 6 mps 757 mmHg 53%
12:00 +36°C° 0 mm 6 mps 756 mmHg 48%
13:00 +35°C° 0 mm 7 mps 755 mmHg 50%
14:00 +35°C° 0 mm 7 mps 755 mmHg 52%
15:00 +35°C° 0 mm 8 mps 754 mmHg 53%
16:00 +33°C° 0 mm 8 mps 754 mmHg 61%
17:00 +32°C° 0 mm 8 mps 754 mmHg 68%
18:00 +29°C° 0 mm 8 mps 755 mmHg 75%
19:00 +29°C° 0 mm 8 mps 755 mmHg 77%
20:00 +29°C° 0 mm 7 mps 756 mmHg 79%
21:00 +28°C° 0 mm 7 mps 756 mmHg 81%
22:00 +28°C° 0 mm 7 mps 756 mmHg 81%
23:00 +28°C° 0 mm 7 mps 756 mmHg 81%

23 October, Friday

Time Temperature Precipitation Wind Pressure Humidity
00:00 +28°C° 0 mm 6 mps 755 mmHg 82%
01:00 +28°C° 0 mm 6 mps 755 mmHg 82%
02:00 +28°C° 0 mm 6 mps 755 mmHg 83%
03:00 +28°C° 0 mm 6 mps 755 mmHg 84%
04:00 +28°C° 0 mm 6 mps 755 mmHg 84%
05:00 +27°C° 0 mm 6 mps 756 mmHg 84%
06:00 +27°C° 0 mm 5 mps 756 mmHg 84%
07:00 +29°C° 0 mm 5 mps 757 mmHg 77%
08:00 +30°C° 0 mm 6 mps 757 mmHg 70%
09:00 +33°C° 0 mm 6 mps 758 mmHg 64%
10:00 +34°C° 0 mm 7 mps 757 mmHg 59%
11:00 +35°C° 0 mm 7 mps 756 mmHg 55%
12:00 +37°C° 0 mm 8 mps 756 mmHg 51%
13:00 +37°C° 0 mm 8 mps 755 mmHg 51%
14:00 +35°C° 0 mm 8 mps 754 mmHg 52%
15:00 +35°C° 0 mm 8 mps 753 mmHg 52%
16:00 +34°C° 0 mm 8 mps 754 mmHg 59%
17:00 +32°C° 0 mm 8 mps 754 mmHg 66%
18:00 +31°C° 0 mm 8 mps 754 mmHg 73%
19:00 +29°C° 0 mm 7 mps 755 mmHg 75%
20:00 +29°C° 0 mm 7 mps 755 mmHg 78%
21:00 +29°C° 0 mm 7 mps 756 mmHg 81%
22:00 +28°C° 0 mm 7 mps 756 mmHg 81%
23:00 +28°C° 0 mm 7 mps 755 mmHg 82%

24 October, Saturday

Time Temperature Precipitation Wind Pressure Humidity
00:00 +28°C° 0 mm 7 mps 755 mmHg 82%
01:00 +28°C° 0 mm 7 mps 755 mmHg 80%
02:00 +28°C° 0 mm 7 mps 755 mmHg 79%
03:00 +28°C° 0 mm 7 mps 755 mmHg 77%
04:00 +28°C° 0 mm 6 mps 755 mmHg 79%
05:00 +28°C° 0 mm 5 mps 755 mmHg 81%
06:00 +27°C° 0 mm 4 mps 756 mmHg 83%
07:00 +29°C° 0 mm 5 mps 756 mmHg 76%
08:00 +32°C° 0 mm 6 mps 756 mmHg 68%
09:00 +33°C° 0 mm 6 mps 757 mmHg 61%
10:00 +34°C° 0 mm 7 mps 756 mmHg 58%
11:00 +35°C° 0 mm 7 mps 756 mmHg 56%
12:00 +35°C° 0 mm 8 mps 755 mmHg 53%
13:00 +35°C° 0 mm 8 mps 754 mmHg 56%
14:00 +34°C° 0 mm 8 mps 754 mmHg 58%
15:00 +33°C° 0 mm 8 mps 753 mmHg 60%
16:00 +32°C° 0 mm 7 mps 754 mmHg 65%
17:00 +30°C° 0 mm 6 mps 754 mmHg 69%
18:00 +29°C° 0 mm 6 mps 755 mmHg 74%
19:00 +29°C° 0 mm 5 mps 755 mmHg 77%
20:00 +29°C° 0 mm 5 mps 756 mmHg 80%
21:00 +28°C° 0 mm 5 mps 756 mmHg 83%
22:00 +28°C° 0 mm 5 mps 756 mmHg 83%
23:00 +28°C° 0 mm 5 mps 756 mmHg 84%

25 October, Sunday

Time Temperature Precipitation Wind Pressure Humidity
00:00 +28°C° 0 mm 5 mps 755 mmHg 84%
01:00 +28°C° 0.1 mm 5 mps 755 mmHg 84%
02:00 +28°C° 0.1 mm 5 mps 755 mmHg 84%
03:00 +28°C° 0.1 mm 5 mps 755 mmHg 84%
04:00 +28°C° 0.1 mm 5 mps 755 mmHg 83%
05:00 +28°C° 0.1 mm 5 mps 755 mmHg 83%
06:00 +28°C° 0.1 mm 5 mps 756 mmHg 83%
07:00 +29°C° 0 mm 5 mps 756 mmHg 75%
08:00 +32°C° 0 mm 5 mps 757 mmHg 68%
09:00 +33°C° 0 mm 6 mps 757 mmHg 60%
10:00 +34°C° 0 mm 6 mps 756 mmHg 57%
11:00 +35°C° 0 mm 6 mps 756 mmHg 54%
12:00 +36°C° 0 mm 7 mps 755 mmHg 51%
13:00 +35°C° 0 mm 7 mps 754 mmHg 52%
14:00 +35°C° 0 mm 6 mps 754 mmHg 53%
15:00 +34°C° 0 mm 6 mps 753 mmHg 55%
16:00 +33°C° 0 mm 6 mps 753 mmHg 62%
17:00 +32°C° 0 mm 5 mps 754 mmHg 68%
18:00 +29°C° 0 mm 5 mps 754 mmHg 75%
19:00 +29°C° 0 mm 4 mps 754 mmHg 78%
20:00 +29°C° 0 mm 4 mps 755 mmHg 81%
21:00 +28°C° 0 mm 4 mps 755 mmHg 85%
22:00 +28°C° 0 mm 4 mps 755 mmHg 86%
23:00 +28°C° 0 mm 4 mps 755 mmHg 88%
Show more